Regional Weather Roundup
Issued by NWS

Home | Current Version | Previous Version | Text Only | Print | Product List | Glossary On
Versions: 1 2 3 4 5 6 7 8 9 10 11 12 13 14 15 16 17 18 19 20 21 22 23 24 25 26 27 28 29 30 31 32 33 34 35 36 37 38 39 40 41 42 43 44 45 46 47 48 49 50
389
ASUS42 KFFC 102203
RWRGA
WEATHER ROUNDUP FOR GEORGIA
NATIONAL WEATHER SERVICE PEACHTREE CITY GA
500 PM EST WED FEB 10 2016

NOTE: "FAIR" INDICATES FEW OR NO CLOUDS BELOW 12,000 FEET WITH NO
SIGNIFICANT WEATHER AND/OR OBSTRUCTIONS TO VISIBILITY.

* = USE WITH CAUTION. THE STATIONS MARKED WITH AN ASTERISK MAY NOT
REPORT WEATHER SUCH AS PRECIPITATION, FOG, OR THUNDER AND ARE NOT
QUALITY CONTROLLED BY NWS.

THE REMARK "TC" DENOTES TEMPERATURE READING IN DEGREES CELSIUS.

GAZ001>058-102300-
NORTH GEORGIA

CITY           SKY/WX    TMP DP  RH WIND       PRES   REMARKS
ATLANTA        MOSUNNY   38   8  29 NW16G22   30.10R WCI  29
ATHENS         SUNNY     36   9  32 W12G23    30.07R WCI  28
CHAMBLEE       PTSUNNY   35  11  36 W14G23    30.09R WCI  26
PEACHTREE CITY SUNNY     39   5  24 W10       30.12R WCI  32
ROME           CLOUDY    33  10  38 W14       30.14R WCI  23
WEST ATLANTA   SUNNY     37   7  28 NW13      30.11R WCI  29
GAINESVILLE    SUNNY     32   8  36 W15G25    30.06R WCI  22
CARTERSVILLE   CLOUDY    34  12  40 CALM      30.14R


CITY           SKY/WX    TMP DP  RH WIND       PRES   REMARKS
LAWRENCEVILLE* SUNNY     34   9  35 W9G21     30.06S WCI  26
KENNESAW*      PTSUNNY   34   9  35 W16G24    30.12R WCI  23
BLAIRSVILLE*     N/A     28 -33   6 NW6       30.02F WCI  22
$$

GAZ059>098-102>109-102300-
CENTRAL GEORGIA

CITY           SKY/WX    TMP DP  RH WIND       PRES   REMARKS
AUGUSTA-BUSH   SUNNY     40   9  28 W22G28    30.09R WCI  30
COLUMBUS       SUNNY     44   8  23 NW16G22   30.17R
MACON          SUNNY     43  10  26 W15       30.14R
ROBINS AFB     SUNNY     44   6  21 W15G23    30.14R


CITY           SKY/WX    TMP DP  RH WIND       PRES   REMARKS
LAGRANGE*      SUNNY     46  16  31 W12G17    30.14S
SYLVANIA*      SUNNY     42  17  35 NW17G25   30.10R
MILLEDGEVILLE* SUNNY     41  10  28 W12G18    30.11R
$$

GAZ099>101-110>166-102300-
SOUTH GEORGIA

CITY           SKY/WX    TMP DP  RH WIND       PRES   REMARKS
SAVANNAH       SUNNY     43  10  26 W18G32    30.11R
VALDOSTA       SUNNY     46  14  27 VRB5      30.20R
ALMA           SUNNY     44  15  31 W14       30.16R
ST SIMONS      SUNNY     45  14  28 W16G24    30.13R
FT STEWART     SUNNY     44  13  29 W22G29    30.11R
ALBANY         SUNNY     47   9  21 W16G23    30.20R
HUNTER AFB     SUNNY     44  11  27 W16G25    30.08R
MOODY AFB      SUNNY     46  14  27 W14G21    30.17R
BRUNSWICK      SUNNY     46  16  29 W17G26    30.14R


CITY           SKY/WX    TMP DP  RH WIND       PRES   REMARKS
BAINBRIDGE*    SUNNY     48  14  25 W13G21    30.22R
MOULTRIE*      SUNNY     45  14  29 W12G21    30.20R
VIDALIA*       SUNNY     43  16  33 W12G17    30.13R
WAYCROSS*      SUNNY     47  19  31 NW17G23   30.17R
DOUGLAS*       SUNNY     46  12  25 W13G24    30.19R
$$




USA.gov is the U.S. government's official web portal to all federal, state and local government web resources and services.